Voltar ao catálogo

STARLINK-3706

AtivoComunicaçõesVLEO
NORAD 52105·PAYLOAD·🇺🇸 United States

Lançado Mar 19, 2022 de Cape Canaveral Space Force Station

Loading…

Próximas Passagens (próximas 24 horas)

TLE

AtualizadoSource: CelesTrak SupGP

Época: Sep 15, 2026, 02:02 UTC

1 52105C 22029T   26258.08520833  .00025432  00000+0  75143-3 0  2586
2 52105  53.1569 294.6820 0001182  98.0482  74.5908 15.34376346    14

Acompanhe STARLINK-3706 em tempo real com AllMySat

Download on the App Store